#timestamp,LO_Frequency,Hit,StdDev 
1515229215.2,286047014.2,N
1515229235.9,286047018.8,N
1515229255.7,286047012.8,N
1515229275.6,286047011.3,N
1515229295.4,286047013.9,N
1515229315.2,286047009.7,N
1515229335.1,286047012.3,N
1515229336.0,286047012.3,N
1515229355.8,286047011.4,N
1515229375.6,286047013.3,N
1515229395.5,286047015.1,N
1515229415.3,286047014.3,Y
1515229435.1,286047006.3,P
1515229455.9,286047008.0,P
1515229475.7,286047005.3,P
1515229495.5,286047000.8,N
1515229515.3,286046998.1,N
1515229535.2,286046998.8,N
1515229555.0,286046998.5,N
1515229555.9,286046998.5,N
1515229575.7,286046995.7,N
1515229595.6,286046993.4,N
1515229615.4,286046995.4,N
1515229635.2,286046997.4,N
1515229655.1,286046997.5,N
1515229656.0,286046997.5,N
1515229675.8,286046999.2,N
1515229695.6,286046995.2,N
1515229715.5,286046993.8,N
1515229735.3,286046994.5,N
1515229755.1,286046990.2,N
1515229775.9,286046991.5,N
1515229795.7,286046992.8,N
1515229815.5,286046992.0,N
1515229835.3,286046995.6,N
1515229855.2,286046998.0,N
1515229875.0,286046999.5,N
1515229875.9,286046999.5,N
1515229895.7,286046997.1,N
1515229915.6,286046994.1,N
1515229935.4,286046991.9,N
1515229955.2,286046995.8,N
1515229975.1,286046995.2,N
1515229976.0,286046995.2,N
1515229995.8,286046995.3,N
1515230015.6,286046994.9,N
1515230035.5,286046992.6,N
1515230055.3,286046988.7,Y
1515230075.1,286046995.6,P
1515230095.9,286046990.1,P
1515230115.7,286046991.3,P
1515230135.5,286046996.8,N
1515230155.4,286047000.3,N
1515230175.2,286046999.3,N
1515230195.0,286046993.9,N
1515230195.9,286046993.9,N
1515230215.8,286046992.4,N
1515230235.6,286046992.3,N
1515230255.4,286046998.7,N
1515230275.2,286047003.9,N
1515230295.1,286047003.6,N
1515230296.0,286047003.6,N
1515230315.8,286047003.7,N
1515230335.6,286046998.1,N
1515230355.5,286047002.7,N
1515230375.3,286046999.7,N
1515230395.1,286046995.7,N
1515230415.9,286046997.8,N
1515230435.7,286047000.4,N
1515230455.5,286047003.6,N
1515230475.4,286047001.9,N
1515230495.2,286047001.8,N
1515230515.0,286047001.0,N
1515230515.9,286047001.0,N
1515230535.8,286046998.0,N
1515230555.6,286046997.4,N
1515230575.4,286046993.7,N
1515230595.2,286046991.8,N
1515230615.1,286046993.8,N
1515230616.0,286046993.8,N
1515230635.8,286047000.1,N
1515230655.6,286047001.3,N
1515230675.5,286047001.7,N
1515230695.3,286047003.9,N
1515230715.1,286047002.3,N
1515230735.9,286046998.1,N
1515230755.7,286046996.9,N
1515230775.5,286046994.6,N
1515230795.4,286046994.7,N
1515230815.2,286046991.8,N
1515230835.0,286046992.8,N
1515230835.9,286046992.8,N
1515230855.8,286046990.4,N
1515230875.6,286046990.8,N
1515230895.4,286046993.8,N
1515230915.3,286046991.5,N
1515230935.1,286046991.4,N
1515230936.0,286046991.4,N
1515230955.8,286046990.6,N
1515230975.6,286046996.0,N
1515230995.5,286046997.3,N
1515231015.3,286046993.9,N
1515231035.1,286046989.8,N
1515231055.9,286046986.2,Y
1515231075.7,286046990.9,P
1515231095.5,286046990.0,P
1515231115.4,286046990.5,P
1515231135.2,286046989.1,Y
1515231155.0,286046997.3,P
1515231155.9,286046997.3,N
1515231175.8,286046998.3,N
1515231195.6,286047001.5,N
1515231215.4,286046998.8,N
1515231235.3,286046996.8,N
1515231255.1,286046998.7,N
1515231256.0,286046998.7,N
1515231275.8,286046998.5,N
1515231295.7,286046999.1,N
1515231315.5,286046998.4,N
1515231335.3,286046997.1,N
1515231355.2,286047001.0,N
1515231375.9,286046999.5,N
1515231395.7,286047000.7,N
1515231415.6,286047000.0,N
1515231435.4,286047001.2,N
1515231455.2,286046998.4,N
1515231475.0,286046995.8,N
1515231475.9,286046995.8,N
1515231495.8,286046999.1,N
1515231515.6,286046996.5,N
1515231535.4,286046998.9,N
1515231555.3,286046992.2,Y
1515231575.1,286046991.8,P
1515231595.8,286046994.5,N
1515231615.7,286046997.4,N
1515231635.5,286047001.1,N
1515231655.3,286046998.2,N
1515231675.2,286046995.1,N
1515231695.9,286046995.1,N
1515231715.7,286046993.6,N
1515231735.6,286046994.1,N
1515231755.4,286046992.9,N
1515231775.2,286046988.7,Y
1515231795.1,286046991.9,P
1515231796.0,286046991.9,P
1515231815.8,286046995.9,N
1515231835.6,286046997.7,N
1515231855.5,286047000.4,N
1515231875.3,286047002.8,N
1515231895.1,286047006.0,N
1515231915.8,286047001.9,N
1515231935.7,286046996.1,N
1515231955.5,286046998.0,N
1515231975.3,286046995.4,N
1515231995.2,286046997.6,N
1515232015.9,286046996.3,N
1515232035.7,286046993.4,N
1515232055.6,286046993.3,N
1515232075.4,286046993.9,N
1515232095.2,286046993.2,N
1515232115.1,286046994.0,N
1515232116.0,286046994.0,N
1515232135.8,286046996.5,N
1515232155.6,286046997.0,N
1515232175.5,286047002.6,N
1515232195.3,286047000.2,N
1515232215.1,286046998.0,N
1515232235.8,286046996.0,N
1515232255.7,286046993.4,N
1515232275.5,286046997.5,N
1515232295.3,286046999.0,N
1515232315.2,286046999.4,N
1515232335.9,286046997.8,N
1515232355.7,286046993.7,N
1515232375.6,286046995.5,N
1515232395.4,286046994.0,N
1515232415.2,286046992.7,N
1515232435.1,286046992.9,N
1515232436.0,286046992.9,N
1515232455.8,286046994.3,N
1515232475.6,286046993.4,N
1515232495.5,286046992.4,Y
1515232515.3,286046996.3,P
1515232535.1,286046994.9,P
1515232555.9,286046997.7,P
1515232575.7,286046997.4,N
1515232595.5,286046996.7,Y
1515232615.4,286047004.0,P
1515232635.2,286047010.5,N
1515232655.0,286047008.0,N
1515232655.9,286047008.0,N
1515232675.8,286047003.2,N
1515232695.6,286047009.7,N
1515232715.4,286047009.6,N
1515232735.2,286047009.2,N
1515232755.1,286047001.5,N
1515232756.0,286047001.5,N
1515232775.8,286047001.7,N
1515232795.6,286047000.9,N
